QPF
0.09 0.10 0.14 0.16 0.15 0.17 0.16 0.19 0.19 0.21 0.19 0.14 0.12 0.13 0.12 0.14 0.15 0.14 0.13 0.11 0.08 0.07 0.08 0.05 0.04 0.05 0.05 0.05 0.07 0.09 0.10 0.10 0.08 0.07 0.07 0.06 0.06 0.09 0.06 0.06 0.09 0.12 0.11
0.07 0.08 0.09 0.12 0.15 0.15 0.14 0.16 0.18 0.20 0.21 0.18 0.14 0.13 0.13 0.11 0.11 0.09 0.09 0.08 0.06 0.06 0.07 0.06 0.06 0.06 0.07 0.08 0.08 0.06 0.07 0.08 0.07 0.05 0.05 0.05 0.06 0.06 0.06 0.06 0.09 0.15 0.13
0.08 0.07 0.07 0.09 0.10 0.13 0.15 0.17 0.17 0.17 0.19 0.18 0.15 0.14 0.12 0.11 0.10 0.08 0.08 0.06 0.06 0.06 0.06 0.06 0.07 0.07 0.07 0.08 0.08 0.06 0.06 0.07 0.06 0.04 0.03 0.03 0.05 0.07 0.07 0.05 0.04 0.06 0.08
0.10 0.10 0.10 0.08 0.07 0.08 0.11 0.14 0.16 0.15 0.17 0.16 0.16 0.15 0.12 0.12 0.09 0.08 0.07 0.05 0.04 0.04 0.04 0.05 0.06 0.07 0.07 0.07 0.08 0.08 0.07 0.06 0.05 0.03 0.03 0.02 0.03 0.03 0.03 0.03 0.03 0.04 0.04
0.10 0.09 0.09 0.09 0.07 0.08 0.08 0.07 0.12 0.17 0.17 0.18 0.16 0.14 0.11 0.12 0.09 0.08 0.07 0.04 0.05 0.04 0.04 0.04 0.05 0.06 0.07 0.06 0.07 0.08 0.07 0.05 0.04 0.03 0.02 0.02 0.03 0.03 0.03 0.03 0.03 0.03 0.05
0.07 0.07 0.07 0.07 0.07 0.07 0.06 0.05 0.07 0.11 0.12 0.14 0.16 0.18 0.15 0.13 0.10 0.09 0.07 0.06 0.06 0.05 0.04 0.05 0.07 0.07 0.04 0.04 0.05 0.05 0.03 0.02 0.02 0.02 0.02 0.03 0.04 0.05 0.04 0.03 0.03 0.03 0.04
0.06 0.06 0.06 0.07 0.07 0.07 0.06 0.06 0.08 0.10 0.10 0.11 0.14 0.17 0.17 0.15 0.13 0.11 0.09 0.07 0.05 0.04 0.04 0.06 0.06 0.04 0.03 0.03 0.04 0.03 0.02 0.02 0.02 0.02 0.01 0.01 0.02 0.04 0.04 0.03 0.03 0.03 0.02
0.07 0.06 0.06 0.06 0.06 0.07 0.08 0.08 0.08 0.08 0.09 0.11 0.11 0.12 0.14 0.16 0.15 0.12 0.10 0.07 0.05 0.05 0.05 0.06 0.05 0.03 0.03 0.04 0.03 0.02 0.02 0.02 0.02 0.02 0.02 0.02 0.02 0.02 0.03 0.03 0.04 0.03 0.03
0.07 0.07 0.06 0.05 0.05 0.05 0.06 0.07 0.06 0.06 0.07 0.09 0.09 0.11 0.13 0.12 0.11 0.09 0.08 0.06 0.06 0.06 0.06 0.05 0.06 0.04 0.04 0.04 0.05 0.03 0.02 0.02 0.03 0.04 0.04 0.03 0.02 0.02 0.03 0.03 0.03 0.03 0.03
0.06 0.06 0.05 0.05 0.04 0.04 0.05 0.05 0.05 0.06 0.07 0.06 0.06 0.07 0.09 0.10 0.10 0.09 0.07 0.05 0.04 0.05 0.05 0.05 0.06 0.08 0.07 0.07 0.05 0.04 0.03 0.03 0.03 0.04 0.04 0.03 0.03 0.03 0.03 0.03 0.03 0.03 0.02
0.04 0.04 0.03 0.03 0.05 0.05 0.04 0.05 0.06 0.06 0.06 0.06 0.06 0.07 0.07 0.09 0.10 0.09 0.06 0.04 0.04 0.03 0.03 0.05 0.06 0.07 0.07 0.07 0.06 0.04 0.04 0.03 0.02 0.03 0.03 0.03 0.04 0.04 0.04 0.04 0.04 0.05 0.05
0.05 0.04 0.04 0.04 0.05 0.05 0.06 0.06 0.06 0.06 0.06 0.07 0.08 0.07 0.07 0.07 0.09 0.08 0.05 0.04 0.05 0.04 0.04 0.04 0.05 0.05 0.04 0.04 0.04 0.04 0.05 0.04 0.02 0.02 0.02 0.02 0.03 0.04 0.04 0.04 0.03 0.04 0.04
0.03 0.05 0.05 0.05 0.06 0.05 0.06 0.07 0.06 0.07 0.07 0.07 0.07 0.08 0.07 0.07 0.07 0.08 0.07 0.05 0.05 0.04 0.04 0.04 0.04 0.05 0.06 0.05 0.05 0.03 0.03 0.03 0.02 0.02 0.02 0.02 0.02 0.02 0.03 0.03 0.03 0.03 0.04
0.02 0.03 0.03 0.03 0.04 0.05 0.05 0.06 0.06 0.07 0.07 0.08 0.08 0.09 0.07 0.05 0.05 0.06 0.06 0.05 0.05 0.04 0.04 0.03 0.04 0.04 0.06 0.07 0.06 0.04 0.03 0.03 0.02 0.01 0.01 0.01 0.01 0.01 0.02 0.02 0.01 0.01 0.02
0.03 0.04 0.03 0.03 0.04 0.05 0.06 0.07 0.08 0.09 0.10 0.10 0.08 0.08 0.07 0.06 0.06 0.05 0.06 0.06 0.06 0.06 0.04 0.04 0.04 0.04 0.04 0.04 0.04 0.04 0.03 0.03 0.02 0.01 0.01 0.01 0.01 0.01 0.01 0.01 0.01 0.01 0.01
0.03 0.04 0.03 0.04 0.05 0.05 0.05 0.06 0.06 0.06 0.06 0.06 0.07 0.06 0.06 0.06 0.06 0.06 0.06 0.08 0.10 0.09 0.07 0.04 0.04 0.05 0.05 0.05 0.05 0.04 0.04 0.03 0.02 0.02 0.01 0.01 0.01 0.01 0.01 0.01 0.00 0.00 0.01
0.03 0.03 0.05 0.06 0.06 0.05 0.04 0.05 0.05 0.06 0.05 0.06 0.05 0.05 0.05 0.05 0.05 0.05 0.06 0.08 0.09 0.11 0.09 0.05 0.07 0.07 0.07 0.07 0.06 0.05 0.05 0.04 0.03 0.02 0.01 0.01 0.01 0.01 0.00 0.01 0.01 0.00 0.00
0.03 0.04 0.05 0.06 0.06 0.06 0.06 0.06 0.06 0.06 0.05 0.05 0.04 0.05 0.05 0.06 0.06 0.06 0.07 0.08 0.09 0.11 0.09 0.06 0.06 0.07 0.06 0.06 0.06 0.05 0.05 0.04 0.05 0.04 0.03 0.03 0.02 0.02 0.01 0.01 0.01 0.00 0.00
0.03 0.04 0.05 0.05 0.05 0.06 0.06 0.06 0.05 0.05 0.04 0.04 0.04 0.04 0.04 0.06 0.05 0.06 0.06 0.06 0.07 0.08 0.10 0.08 0.06 0.07 0.06 0.07 0.09 0.08 0.08 0.08 0.07 0.08 0.06 0.03 0.03 0.02 0.02 0.02 0.01 0.01 0.01
0.02 0.02 0.02 0.03 0.04 0.04 0.05 0.05 0.05 0.05 0.05 0.04 0.04 0.05 0.06 0.07 0.06 0.06 0.05 0.06 0.07 0.07 0.08 0.07 0.07 0.08 0.08 0.09 0.09 0.09 0.10 0.11 0.11 0.10 0.07 0.05 0.03 0.02 0.02 0.02 0.02 0.02 0.01
0.01 0.02 0.02 0.03 0.03 0.04 0.04 0.05 0.05 0.05 0.05 0.04 0.04 0.04 0.04 0.04 0.04 0.05 0.04 0.05 0.05 0.04 0.05 0.05 0.05 0.06 0.07 0.08 0.09 0.11 0.13 0.15 0.12 0.10 0.09 0.07 0.06 0.05 0.03 0.02 0.02 0.02 0.02
0.02 0.02 0.02 0.03 0.03 0.03 0.04 0.04 0.04 0.03 0.03 0.03 0.04 0.03 0.03 0.03 0.03 0.03 0.02 0.02 0.03 0.03 0.04 0.04 0.04 0.04 0.06 0.07 0.09 0.09 0.10 0.10 0.11 0.10 0.09 0.08 0.07 0.06 0.05 0.03 0.03 0.02 0.02
0.02 0.02 0.02 0.03 0.04 0.04 0.04 0.04 0.03 0.02 0.03 0.03 0.03 0.03 0.02 0.02 0.02 0.01 0.01 0.01 0.02 0.03 0.04 0.05 0.05 0.06 0.08 0.10 0.10 0.10 0.09 0.08 0.07 0.05 0.05 0.04 0.04 0.03 0.02 0.01 0.01 0.02 0.03
0.03 0.03 0.03 0.03 0.04 0.04 0.04 0.03 0.03 0.03 0.03 0.02 0.02 0.02 0.02 0.02 0.01 0.01 0.01 0.01 0.02 0.03 0.03 0.03 0.05 0.06 0.08 0.11 0.13 0.13 0.09 0.06 0.05 0.04 0.04 0.04 0.03 0.03 0.02 0.02 0.02 0.03 0.03
0.03 0.04 0.04 0.04 0.04 0.04 0.04 0.03 0.03 0.03 0.03 0.02 0.01 0.02 0.02 0.01 0.02 0.02 0.02 0.02 0.02 0.03 0.02 0.02 0.03 0.04 0.05 0.05 0.05 0.05 0.05 0.04 0.04 0.05 0.05 0.05 0.04 0.03 0.03 0.04 0.03 0.03 0.03
0.04 0.04 0.04 0.04 0.04 0.04 0.04 0.04 0.04 0.04 0.03 0.02 0.02 0.02 0.02 0.02 0.02 0.02 0.02 0.02 0.02 0.02 0.02 0.02 0.02 0.02 0.02 0.02 0.03 0.03 0.04 0.05 0.05 0.06 0.06 0.06 0.05 0.05 0.05 0.04 0.03 0.01 0.02
MSLP
1007.36 1007.99 1008.58 1009.10 1009.57 1010.02 1010.52 1011.11 1011.81 1012.62 1013.48 1014.33 1015.11 1015.74 1016.20 1016.49 1016.64 1016.72 1016.80 1016.92 1017.12 1017.40 1017.74 1018.09 1018.41 1018.66 1018.83 1018.94 1018.99 1019.04 1019.10 1019.19 1019.33 1019.49 1019.66 1019.81 1019.93 1020.01 1020.06 1020.08 1020.12 1020.16 1020.24
1008.55 1009.05 1009.48 1009.86 1010.21 1010.59 1011.06 1011.64 1012.34 1013.14 1013.97 1014.76 1015.44 1015.96 1016.31 1016.49 1016.56 1016.58 1016.64 1016.77 1017.00 1017.32 1017.70 1018.09 1018.44 1018.71 1018.88 1018.97 1019.00 1019.01 1019.03 1019.09 1019.20 1019.33 1019.48 1019.62 1019.73 1019.80 1019.83 1019.84 1019.85 1019.87 1019.93
1009.16 1009.60 1009.98 1010.31 1010.65 1011.04 1011.52 1012.12 1012.82 1013.60 1014.38 1015.09 1015.68 1016.09 1016.33 1016.43 1016.43 1016.42 1016.45 1016.58 1016.82 1017.16 1017.55 1017.95 1018.31 1018.58 1018.75 1018.83 1018.85 1018.85 1018.85 1018.90 1018.98 1019.10 1019.23 1019.34 1019.43 1019.48 1019.49 1019.48 1019.47 1019.47 1019.52
1009.46 1009.90 1010.28 1010.65 1011.03 1011.46 1011.98 1012.59 1013.28 1014.00 1014.71 1015.33 1015.82 1016.14 1016.30 1016.33 1016.29 1016.25 1016.26 1016.37 1016.59 1016.90 1017.27 1017.65 1017.98 1018.23 1018.40 1018.48 1018.52 1018.52 1018.54 1018.59 1018.67 1018.77 1018.88 1018.98 1019.04 1019.06 1019.04 1019.01 1018.98 1018.98 1019.01
1009.72 1010.16 1010.58 1011.00 1011.44 1011.92 1012.47 1013.07 1013.71 1014.36 1014.97 1015.49 1015.88 1016.12 1016.22 1016.22 1016.16 1016.10 1016.09 1016.17 1016.34 1016.59 1016.89 1017.19 1017.47 1017.69 1017.84 1017.94 1018.00 1018.05 1018.10 1018.18 1018.28 1018.38 1018.48 1018.55 1018.58 1018.57 1018.53 1018.47 1018.43 1018.41 1018.44
1010.09 1010.53 1010.98 1011.44 1011.93 1012.44 1012.97 1013.54 1014.10 1014.65 1015.15 1015.56 1015.86 1016.05 1016.12 1016.11 1016.06 1016.00 1015.97 1016.00 1016.09 1016.25 1016.44 1016.64 1016.83 1017.00 1017.14 1017.25 1017.35 1017.46 1017.57 1017.70 1017.83 1017.95 1018.05 1018.10 1018.10 1018.06 1017.99 1017.91 1017.84 1017.81 1017.83
1010.62 1011.04 1011.49 1011.97 1012.46 1012.96 1013.46 1013.95 1014.42 1014.85 1015.23 1015.55 1015.78 1015.94 1016.02 1016.03 1016.00 1015.95 1015.91 1015.89 1015.89 1015.92 1015.98 1016.06 1016.15 1016.25 1016.36 1016.49 1016.65 1016.82 1017.01 1017.21 1017.39 1017.53 1017.63 1017.67 1017.65 1017.58 1017.48 1017.37 1017.28 1017.23 1017.23
1011.26 1011.62 1012.05 1012.51 1012.99 1013.45 1013.88 1014.28 1014.63 1014.95 1015.22 1015.46 1015.65 1015.80 1015.91 1015.97 1015.99 1015.97 1015.91 1015.84 1015.75 1015.65 1015.57 1015.51 1015.49 1015.52 1015.60 1015.75 1015.95 1016.20 1016.47 1016.74 1016.97 1017.16 1017.27 1017.30 1017.26 1017.17 1017.04 1016.90 1016.78 1016.70 1016.66
1011.87 1012.19 1012.57 1012.99 1013.42 1013.82 1014.17 1014.47 1014.72 1014.94 1015.12 1015.30 1015.48 1015.65 1015.80 1015.93 1016.00 1016.02 1015.96 1015.84 1015.67 1015.46 1015.24 1015.05 1014.93 1014.88 1014.94 1015.10 1015.34 1015.65 1015.99 1016.33 1016.62 1016.83 1016.96 1017.00 1016.95 1016.84 1016.69 1016.53 1016.38 1016.26 1016.18
1012.37 1012.63 1012.96 1013.34 1013.71 1014.05 1014.33 1014.55 1014.71 1014.84 1014.96 1015.11 1015.28 1015.47 1015.68 1015.87 1016.01 1016.06 1016.02 1015.87 1015.63 1015.33 1015.01 1014.72 1014.50 1014.40 1014.42 1014.58 1014.86 1015.21 1015.60 1015.98 1016.32 1016.56 1016.71 1016.75 1016.70 1016.59 1016.43 1016.25 1016.08 1015.93 1015.81
1012.69 1012.90 1013.19 1013.52 1013.85 1014.14 1014.36 1014.52 1014.62 1014.69 1014.77 1014.89 1015.06 1015.28 1015.53 1015.77 1015.96 1016.06 1016.03 1015.87 1015.60 1015.24 1014.86 1014.50 1014.22 1014.07 1014.07 1014.23 1014.51 1014.88 1015.29 1015.70 1016.05 1016.32 1016.47 1016.53 1016.49 1016.39 1016.23 1016.06 1015.88 1015.70 1015.54
1012.82 1013.01 1013.27 1013.58 1013.88 1014.13 1014.32 1014.43 1014.49 1014.53 1014.58 1014.67 1014.84 1015.07 1015.34 1015.61 1015.83 1015.96 1015.95 1015.81 1015.53 1015.16 1014.76 1014.37 1014.07 1013.90 1013.88 1014.02 1014.29 1014.65 1015.06 1015.46 1015.81 1016.07 1016.24 1016.31 1016.29 1016.21 1016.07 1015.92 1015.75 1015.56 1015.37
1012.82 1013.00 1013.25 1013.54 1013.83 1014.07 1014.24 1014.34 1014.38 1014.39 1014.41 1014.48 1014.62 1014.83 1015.09 1015.37 1015.60 1015.75 1015.77 1015.65 1015.41 1015.07 1014.69 1014.32 1014.03 1013.86 1013.83 1013.94 1014.18 1014.51 1014.88 1015.24 1015.56 1015.81 1015.98 1016.06 1016.07 1016.02 1015.93 1015.81 1015.66 1015.49 1015.30
1012.75 1012.93 1013.18 1013.47 1013.75 1014.00 1014.17 1014.27 1014.29 1014.28 1014.27 1014.30 1014.40 1014.57 1014.80 1015.05 1015.27 1015.43 1015.48 1015.41 1015.23 1014.96 1014.64 1014.33 1014.08 1013.93 1013.90 1013.99 1014.18 1014.45 1014.75 1015.05 1015.32 1015.54 1015.70 1015.79 1015.83 1015.82 1015.78 1015.71 1015.61 1015.47 1015.30
1012.67 1012.85 1013.10 1013.39 1013.68 1013.94 1014.12 1014.22 1014.24 1014.21 1014.17 1014.15 1014.19 1014.30 1014.47 1014.67 1014.87 1015.03 1015.12 1015.11 1015.02 1014.84 1014.62 1014.40 1014.22 1014.10 1014.07 1014.13 1014.27 1014.46 1014.68 1014.90 1015.10 1015.27 1015.41 1015.51 1015.57 1015.61 1015.63 1015.62 1015.57 1015.48 1015.34
1012.61 1012.78 1013.03 1013.32 1013.62 1013.88 1014.07 1014.17 1014.19 1014.14 1014.06 1014.00 1013.98 1014.02 1014.12 1014.27 1014.45 1014.61 1014.74 1014.80 1014.80 1014.74 1014.64 1014.52 1014.42 1014.35 1014.33 1014.36 1014.43 1014.54 1014.67 1014.80 1014.92 1015.04 1015.14 1015.23 1015.32 1015.40 1015.47 1015.51 1015.52 1015.49 1015.40
1012.56 1012.72 1012.95 1013.23 1013.53 1013.79 1013.98 1014.09 1014.10 1014.04 1013.94 1013.83 1013.76 1013.73 1013.78 1013.89 1014.04 1014.21 1014.38 1014.52 1014.62 1014.68 1014.70 1014.69 1014.66 1014.65 1014.63 1014.64 1014.65 1014.68 1014.71 1014.75 1014.80 1014.85 1014.92 1015.00 1015.09 1015.20 1015.31 1015.40 1015.46 1015.48 1015.45
1012.49 1012.63 1012.84 1013.10 1013.38 1013.63 1013.82 1013.93 1013.94 1013.88 1013.76 1013.63 1013.51 1013.45 1013.45 1013.53 1013.67 1013.86 1014.07 1014.29 1014.48 1014.65 1014.77 1014.86 1014.92 1014.94 1014.94 1014.92 1014.89 1014.84 1014.79 1014.75 1014.72 1014.71 1014.74 1014.80 1014.90 1015.01 1015.15 1015.27 1015.38 1015.44 1015.45
1012.38 1012.49 1012.67 1012.91 1013.16 1013.39 1013.57 1013.67 1013.69 1013.62 1013.50 1013.36 1013.23 1013.15 1013.14 1013.20 1013.35 1013.56 1013.81 1014.09 1014.36 1014.61 1014.83 1015.00 1015.12 1015.18 1015.19 1015.15 1015.08 1014.98 1014.87 1014.76 1014.67 1014.62 1014.61 1014.64 1014.72 1014.84 1014.98 1015.12 1015.25 1015.35 1015.41
1012.19 1012.28 1012.43 1012.64 1012.85 1013.06 1013.22 1013.31 1013.32 1013.26 1013.15 1013.02 1012.90 1012.83 1012.82 1012.89 1013.05 1013.28 1013.57 1013.89 1014.22 1014.53 1014.81 1015.04 1015.20 1015.29 1015.31 1015.26 1015.17 1015.03 1014.88 1014.74 1014.61 1014.52 1014.48 1014.50 1014.56 1014.67 1014.80 1014.95 1015.09 1015.22 1015.31
1011.92 1012.00 1012.12 1012.29 1012.48 1012.65 1012.78 1012.85 1012.86 1012.81 1012.71 1012.61 1012.51 1012.46 1012.47 1012.56 1012.73 1012.98 1013.29 1013.64 1014.00 1014.34 1014.65 1014.91 1015.09 1015.20 1015.23 1015.19 1015.09 1014.95 1014.79 1014.64 1014.50 1014.40 1014.35 1014.35 1014.40 1014.49 1014.61 1014.75 1014.90 1015.04 1015.17
1011.56 1011.64 1011.75 1011.89 1012.04 1012.17 1012.27 1012.32 1012.32 1012.27 1012.20 1012.12 1012.05 1012.03 1012.07 1012.19 1012.38 1012.64 1012.95 1013.30 1013.66 1014.01 1014.32 1014.58 1014.77 1014.88 1014.93 1014.90 1014.82 1014.70 1014.57 1014.43 1014.31 1014.22 1014.18 1014.18 1014.22 1014.31 1014.42 1014.55 1014.70 1014.86 1015.02
1011.11 1011.21 1011.32 1011.44 1011.55 1011.65 1011.71 1011.74 1011.72 1011.68 1011.62 1011.56 1011.53 1011.55 1011.62 1011.76 1011.96 1012.22 1012.53 1012.86 1013.20 1013.52 1013.81 1014.05 1014.24 1014.36 1014.41 1014.41 1014.37 1014.29 1014.20 1014.11 1014.04 1013.99 1013.98 1014.00 1014.05 1014.13 1014.24 1014.37 1014.52 1014.69 1014.87
1010.56 1010.69 1010.81 1010.92 1011.01 1011.08 1011.11 1011.11 1011.08 1011.03 1010.99 1010.96 1010.96 1011.01 1011.11 1011.27 1011.48 1011.73 1012.02 1012.32 1012.63 1012.91 1013.16 1013.38 1013.55 1013.67 1013.74 1013.77 1013.77 1013.76 1013.74 1013.72 1013.71 1013.73 1013.76 1013.82 1013.90 1013.99 1014.11 1014.24 1014.39 1014.57 1014.77
1009.88 1010.05 1010.19 1010.31 1010.38 1010.42 1010.43 1010.41 1010.38 1010.34 1010.32 1010.32 1010.35 1010.43 1010.56 1010.74 1010.96 1011.20 1011.47 1011.74 1012.00 1012.24 1012.46 1012.64 1012.79 1012.91 1013.00 1013.07 1013.13 1013.18 1013.24 1013.30 1013.37 1013.46 1013.56 1013.67 1013.79 1013.91 1014.04 1014.18 1014.34 1014.53 1014.74
1009.06 1009.27 1009.43 1009.55 1009.62 1009.66 1009.66 1009.64 1009.61 1009.59 1009.60 1009.63 1009.71 1009.83 1010.00 1010.20 1010.42 1010.67 1010.92 1011.16 1011.38 1011.59 1011.77 1011.92 1012.06 1012.18 1012.28 1012.39 1012.50 1012.62 1012.76 1012.91 1013.07 1013.24 1013.41 1013.58 1013.75 1013.90 1014.06 1014.21 1014.38 1014.57 1014.78
Thickness
5783 5782 5780 5780 5778 5777 5775 5773 5772 5771 5770 5769 5769 5767 5766 5765 5763 5761 5758 5757 5755 5753 5752 5751 5749 5747 5746 5745 5744 5742 5740 5739 5737 5736 5735 5734 5733 5732 5730 5728 5726 5725 5724
5784 5782 5780 5779 5778 5777 5775 5773 5772 5770 5769 5768 5767 5766 5765 5764 5762 5761 5758 5756 5755 5753 5752 5750 5749 5747 5746 5745 5743 5742 5740 5738 5737 5735 5734 5733 5732 5730 5729 5727 5726 5725 5723
5784 5783 5780 5779 5778 5777 5776 5774 5772 5771 5769 5768 5766 5765 5764 5762 5762 5760 5759 5757 5755 5753 5751 5750 5748 5747 5745 5744 5743 5742 5740 5737 5736 5734 5733 5732 5731 5729 5728 5726 5725 5724 5721
5785 5783 5781 5779 5778 5777 5776 5773 5772 5769 5768 5766 5765 5765 5764 5762 5761 5761 5759 5758 5756 5754 5752 5750 5748 5747 5745 5743 5742 5741 5739 5737 5735 5733 5732 5731 5730 5729 5727 5726 5724 5722 5720
5786 5784 5782 5781 5780 5778 5776 5774 5771 5769 5767 5766 5765 5764 5763 5762 5762 5761 5760 5758 5757 5755 5753 5750 5748 5746 5744 5743 5742 5740 5738 5737 5735 5733 5731 5730 5728 5727 5726 5724 5722 5720 5718
5786 5785 5783 5782 5781 5778 5775 5773 5771 5769 5768 5766 5765 5763 5762 5762 5762 5761 5760 5759 5758 5756 5754 5752 5748 5746 5744 5743 5741 5740 5738 5736 5734 5732 5731 5729 5727 5725 5724 5722 5720 5718 5716
5786 5785 5784 5782 5780 5777 5775 5773 5771 5768 5766 5766 5761 5757 5758 5762 5761 5761 5761 5760 5759 5757 5755 5753 5750 5748 5745 5743 5741 5740 5738 5736 5734 5731 5729 5728 5726 5724 5722 5721 5719 5717 5715
5787 5786 5783 5782 5780 5777 5775 5773 5771 5767 5766 5766 5761 5754 5750 5752 5757 5761 5760 5758 5758 5757 5755 5753 5751 5749 5747 5744 5741 5739 5737 5735 5733 5730 5728 5726 5725 5723 5721 5719 5717 5715 5713
5788 5786 5784 5782 5781 5778 5775 5773 5771 5768 5763 5765 5765 5759 5750 5746 5749 5754 5757 5758 5757 5755 5754 5753 5751 5749 5747 5744 5742 5740 5737 5734 5732 5730 5728 5725 5723 5721 5719 5717 5716 5714 5712
5789 5787 5785 5783 5781 5779 5776 5775 5773 5770 5766 5762 5764 5765 5762 5758 5749 5745 5750 5754 5755 5753 5753 5753 5751 5749 5746 5743 5742 5740 5737 5734 5731 5729 5727 5724 5722 5719 5717 5715 5713 5711 5709
5789 5787 5786 5783 5780 5779 5777 5776 5774 5771 5769 5765 5763 5762 5761 5759 5757 5748 5742 5746 5749 5752 5752 5752 5750 5748 5746 5744 5741 5739 5736 5733 5730 5727 5725 5723 5721 5718 5715 5713 5711 5709 5707
5789 5788 5786 5783 5780 5778 5777 5775 5774 5771 5769 5767 5765 5763 5760 5757 5754 5751 5745 5744 5744 5748 5751 5751 5749 5747 5745 5743 5741 5738 5735 5731 5729 5726 5723 5721 5718 5716 5713 5710 5708 5706 5704
5787 5787 5786 5783 5780 5778 5777 5776 5773 5772 5770 5767 5765 5764 5763 5761 5759 5755 5748 5744 5742 5744 5747 5748 5748 5746 5744 5741 5739 5735 5732 5729 5726 5724 5721 5718 5716 5713 5710 5707 5704 5702 5700
5788 5787 5784 5782 5780 5778 5777 5775 5773 5771 5770 5767 5766 5764 5762 5762 5761 5758 5752 5744 5738 5738 5741 5742 5745 5745 5742 5739 5736 5733 5730 5727 5724 5721 5718 5715 5712 5709 5706 5703 5700 5698 5696
5789 5786 5784 5781 5779 5777 5776 5773 5770 5769 5768 5766 5764 5763 5762 5762 5761 5759 5755 5750 5741 5733 5734 5739 5740 5742 5740 5738 5735 5732 5729 5725 5722 5718 5715 5712 5709 5706 5703 5700 5696 5694 5691
5787 5784 5781 5779 5777 5775 5773 5771 5768 5767 5765 5763 5762 5761 5760 5760 5759 5758 5755 5753 5748 5740 5735 5739 5739 5741 5739 5736 5733 5730 5727 5723 5719 5716 5712 5709 5706 5702 5699 5696 5692 5689 5687
5784 5781 5779 5777 5774 5772 5771 5768 5766 5764 5762 5760 5760 5759 5758 5757 5756 5755 5754 5751 5748 5743 5736 5738 5739 5738 5735 5733 5729 5727 5724 5720 5716 5713 5710 5706 5702 5698 5695 5692 5688 5685 5682
5782 5779 5777 5774 5772 5770 5768 5766 5763 5762 5759 5757 5756 5756 5755 5755 5753 5751 5749 5747 5745 5743 5737 5733 5734 5733 5732 5730 5727 5723 5721 5718 5714 5710 5707 5703 5699 5694 5691 5688 5684 5681 5678
5779 5777 5774 5771 5770 5768 5766 5763 5761 5759 5758 5756 5755 5753 5752 5751 5748 5747 5746 5744 5742 5742 5738 5733 5731 5730 5728 5727 5723 5720 5718 5714 5711 5707 5703 5699 5695 5691 5687 5684 5681 5677 5673
5777 5774 5772 5770 5768 5765 5763 5760 5758 5756 5754 5753 5753 5751 5750 5748 5746 5744 5743 5740 5739 5735 5733 5730 5728 5726 5724 5723 5718 5713 5710 5709 5706 5704 5698 5695 5691 5687 5683 5680 5677 5673 5669
5775 5772 5769 5767 5765 5763 5760 5757 5754 5753 5751 5750 5749 5748 5747 5746 5744 5742 5740 5737 5734 5731 5728 5725 5722 5720 5718 5714 5711 5709 5705 5703 5701 5700 5695 5691 5686 5682 5679 5675 5672 5669 5665
5772 5769 5766 5763 5761 5759 5755 5753 5751 5750 5748 5746 5745 5744 5744 5742 5740 5738 5736 5733 5730 5727 5723 5720 5718 5715 5713 5712 5709 5706 5701 5697 5693 5695 5690 5686 5684 5680 5677 5674 5670 5666 5661
5768 5765 5763 5760 5756 5754 5751 5749 5746 5745 5744 5743 5741 5740 5740 5740 5736 5734 5731 5729 5726 5724 5721 5718 5714 5712 5711 5709 5705 5701 5697 5693 5691 5691 5686 5681 5680 5676 5675 5673 5668 5664 5659
5763 5761 5758 5757 5753 5751 5747 5744 5742 5741 5740 5739 5738 5736 5734 5732 5731 5728 5726 5724 5722 5720 5718 5715 5713 5711 5709 5706 5703 5698 5694 5691 5689 5687 5684 5677 5676 5674 5673 5668 5664 5660 5655
5759 5757 5754 5751 5748 5746 5743 5739 5736 5735 5734 5733 5733 5732 5729 5727 5724 5721 5719 5717 5715 5714 5713 5711 5709 5706 5704 5701 5698 5694 5689 5683 5680 5680 5679 5674 5671 5669 5666 5663 5660 5656 5651
5755 5753 5750 5747 5744 5741 5738 5734 5730 5729 5728 5727 5727 5726 5723 5721 5718 5715 5712 5710 5707 5707 5706 5704 5702 5700 5698 5696 5693 5689 5686 5680 5676 5674 5675 5669 5666 5662 5658 5658 5654 5650 5645